Weather History for Marathon, FL

Change the Weather History Date:

Friday, November 8, 2013

  Actual Average Record
Temperature  
Mean Temperature 80 °F 77 °F  
Max Temperature 85 °F 81 °F 87 °F (1996)
Min Temperature 74 °F 72 °F 63 °F (2010)
Degree Days  
Heating Degree Days 0 0  
Month to date heating degree days 0 0  
Since 1 July heating degree days 0 0  
Cooling Degree Days 15 12  
Month to date cooling degree days 114 98  
Year to date cooling degree days 4975 4537  
Growing Degree Days 30 (Base 50)    
Moisture  
Dew Point 73 °F    
Average Humidity 82    
Maximum Humidity 94    
Minimum Humidity 70    
Precipitation  
Precipitation 0.00 in 0.09 in 0.15 in (2006)
Month to date precipitation 0.42 0.98  
Year to date precipitation 43.93 42.31  
Snow  
Snow 0.00 in - - ()
Month to date snowfall 0.0  
Since 1 July snowfall 0.0  
Since 1 September snowfall 0.0  
Snow Depth 0.00 in    
Sea Level Pressure  
Sea Level Pressure 29.97 in    
Wind  
Wind Speed 13 mph (NE)    
Max Wind Speed 22 mph    
Max Gust Speed 29 mph    
Visibility 10 miles    
Events      
T = Trace of Precipitation, MM = Missing Value Source: NWS Daily Summary

Daily Weather History Graph

Daily Weather History Graph

Search for Another Location

Airport:

Trip Planner

Search our weather history database for the weather conditions in past years. The results will help you decide how hot, cold, wet, or windy it might be!

Date:

Astronomy

Nov. 08, 2013 Rise Set
Actual Time 6:35 AM EST 5:39 PM EST
Civil Twilight 6:12 AM EST 6:03 PM EST
Nautical Twilight 5:44 AM EST 6:30 PM EST
Astronomical Twilight 5:17 AM EST 6:57 PM EST
Moon 11:30 AM EST (11/8) 10:57 PM EST (11/8)
Length of Visible Light 11h 51m
Length of Day
11h 04m
Waxing Crescent, 33% of the Moon is Illuminated
Nov 8
Waxing Crescent
Nov 10
First Quarter
Nov 17
Full
Nov 25
Last Quarter
Dec 2
New

Hourly Weather History & Observations

Time (EST) Temp. Heat Index Dew Point Humidity Pressure Visibility Wind Dir Wind Speed Gust Speed Precip Events Conditions
12:53 AM 77.0 °F - 73.0 °F 88% 29.96 in 10.0 mi NNE 5.8 mph - N/A   Clear
1:53 AM 77.0 °F - 73.0 °F 88% 29.95 in 10.0 mi NNE 9.2 mph - N/A   Clear
2:53 AM 75.9 °F - 72.0 °F 87% 29.94 in 10.0 mi North 10.4 mph 19.6 mph N/A   Clear
3:53 AM 75.9 °F - 71.1 °F 85% 29.94 in 10.0 mi NNE 12.7 mph - N/A   Partly Cloudy
4:53 AM 75.9 °F - 71.1 °F 85% 29.95 in 10.0 mi NNE 10.4 mph - N/A   Mostly Cloudy
5:53 AM 75.0 °F - 70.0 °F 84% 29.96 in 10.0 mi NNE 11.5 mph - N/A   Scattered Clouds
6:53 AM 75.0 °F - 70.0 °F 84% 29.98 in 10.0 mi NNE 12.7 mph 23.0 mph N/A   Clear
7:53 AM 75.9 °F - 70.0 °F 82% 29.99 in 10.0 mi NNE 11.5 mph - N/A   Clear
8:53 AM 77.0 °F - 72.0 °F 84% 30.00 in 10.0 mi NNE 13.8 mph - N/A   Clear
9:53 AM 80.1 °F 84.2 °F 73.0 °F 79% 30.01 in 10.0 mi NNE 12.7 mph - N/A   Clear
10:53 AM 81.0 °F 86.2 °F 73.9 °F 79% 30.00 in 10.0 mi NE 13.8 mph - N/A   Clear
11:53 AM 82.9 °F 89.4 °F 73.9 °F 74% 29.98 in 10.0 mi NE 12.7 mph - N/A   Clear
12:53 PM 84.0 °F 91.9 °F 75.0 °F 74% 29.96 in 10.0 mi NE 12.7 mph - N/A   Clear
1:53 PM 84.0 °F 91.9 °F 75.0 °F 74% 29.94 in 10.0 mi NE 18.4 mph - N/A   Mostly Cloudy
2:53 PM 84.0 °F 91.2 °F 73.9 °F 72% 29.93 in 10.0 mi NE 16.1 mph - N/A   Clear
3:53 PM 82.9 °F 89.4 °F 73.9 °F 74% 29.94 in 10.0 mi NE 18.4 mph - N/A   Clear
4:53 PM 82.0 °F 87.4 °F 73.0 °F 74% 29.95 in 10.0 mi NE 16.1 mph - N/A   Clear
5:53 PM 81.0 °F 85.2 °F 72.0 °F 74% 29.97 in 10.0 mi NE 15.0 mph 25.3 mph N/A   Clear
6:53 PM 80.1 °F 84.2 °F 73.0 °F 79% 29.99 in 10.0 mi NE 16.1 mph 23.0 mph N/A   Overcast
7:53 PM 80.1 °F 83.6 °F 71.1 °F 74% 30.00 in 10.0 mi NE 12.7 mph - N/A   Clear
8:53 PM 79.0 °F - 73.0 °F 82% 30.01 in 10.0 mi NE 13.8 mph - N/A   Clear
9:53 PM 77.0 °F - 73.9 °F 90% 30.02 in 10.0 mi NNE 10.4 mph - N/A   Clear
10:53 PM 77.0 °F - 75.0 °F 94% 30.01 in 10.0 mi NNE 12.7 mph - N/A   Partly Cloudy
11:53 PM 75.9 °F - 75.0 °F 97% 30.01 in 10.0 mi NE 9.2 mph - N/A   Clear